Погода в Элдорете

Кения     0°30′24″N   35°16′23″E
темп.,
°C
ветер,
м/с
пор.,
м/с
влажн.,
%
обл.,
%
осадки,
мм/ч
давл.,
гПа
погр.,
м
24 мая, вт
вт2400:00+15в238783 0.5 101555
03:00+14вюв228478 0.6 101412
06:00+13вюв22835 0.0 101511
09:00+19ююв116550 0.0 1015316
12:00+24св24395 0.0 10132207
15:00+24св34376 0.0 10112232
18:00+17з468443 1.4 1014157
21:00+16ю118372 1.5 101611
25 мая, ср
ср2500:00+16ю2281100 0.1 101615
03:00+15с118337 0.1 101510
06:00+13св1181100 0.0 101710
09:00+18ссз1169100 0.0 1018401
12:00+21сз235698 0.6 10151329
15:00+22ссз3456100 2.0 10131141
18:00+17з3586100 1.9 1015138
21:00+15юв1188100 3.1 101824
26 мая, чт
чт2600:00+14ссв118551 0.7 101912
03:00+14с118947 1.1 101811
06:00+12вюв119259 0.0 101910
09:00+17ссз117895 0.0 1019461
12:00+21ссв235786 0.4 10161391
15:00+22ссв355499 2.1 10131776
18:00+18с2380100 2.3 101584
21:00+14вюв2290100 4.2 101931
27 мая, пт
пт2700:00+13ююв2286100 0.0 101912
03:00+13ююв1185100 0.4 101811
06:00+12юв2284100 0.0 101811
09:00+17сз1174100 0.0 1019286
12:00+20сз226291 0.5 10171178
15:00+20сз446176 2.1 10141025
18:00+16зсз468785 2.1 1015197
21:00+14ю1188100 2.8 101813
28 мая, сб
сб2800:00+13ююв1187100 0.1 101810
03:00+14ссв2289100 0.3 101736
06:00+13вюв118928 0.0 101710
09:00+17в117471 0.1 1018298
12:00+20сз226047 0.9 10151235
15:00+21зсз335844 2.3 10121366
18:00+16зсз358695 2.6 1014123
21:00+13ю229394 3.2 101719